Home > Weather > Gonda > Past weeks

Flag for India Past Weather in Gonda, Uttar Pradesh, India — Yesterday and Last 2 Weeks

Now
90 °F

Passing clouds.


Feels Like: 108 °F
Forecast: 87 / 100 °F
Wind: 7 mph from East

Location: Lucknow / Amausi

Current Time: Jun 29, 2016 at 2:12:39 AM

Latest Report: Jun 29, 2016 at 1:00 AM


Visibility: 2 mi

Pressure: 29.56 "Hg

Humidity: 75%

Dew Point: 81 °F

Location of GondaLocation

Past Weather in Gonda — Graph

°F

Gonda Temperature Yesterday

Maximum temperature yesterday: 100 °F (at 2:30 PM)
Minimum temperature yesterday: 86 °F (at 5:00 AM)
Average temperature yesterday: 94 °F

High & Low Weather Summary for the Past Weeks

 TemperatureHumidityPressure
High108 °F (Jun 14, 3:00 PM)100% (Jun 15, 5:30 PM)29.68 "Hg (Jun 15, 5:30 PM)
Low75 °F (Jun 21, 7:30 AM)32% (Jun 14, 2:00 PM)29.36 "Hg (Jun 14, 5:00 PM)
Average91 °F71%29.53 "Hg
* Reported Jun 14 12:00 AM — Jun 29 12:00 AM, Gonda, Weather by CustomWeather, © 2016

Note: Actual official high and low records may vary slightly from our data, if they occured in-between our weather recording intervals... More about our weather records

Advertising

Gonda Weather History for the Previous 24 Hours

Scroll right to see more
 ConditionsComfort  
Time TempWeatherWind HumidityBarometerVisibility
12:00 AM
Wed, Jun 29
91 °FPassing clouds.6 mph75%29.56 "Hg2 mi
11:00 PM
Tue, Jun 28
91 °FPassing clouds.7 mph75%29.56 "Hg2 mi
10:00 PM93 °FPassing clouds.7 mph71%29.53 "Hg2 mi
9:00 PM93 °FPassing clouds.6 mph67%29.50 "Hg2 mi
8:30 PM93 °FPassing clouds.6 mph71%29.50 "Hg2 mi
8:00 PM95 °FPassing clouds.9 mph63%29.47 "Hg2 mi
7:30 PM95 °FScattered clouds.7 mph63%29.47 "Hg2 mi
7:00 PM97 °FHaze.7 mph63%29.47 "Hg2 mi
6:30 PM99 °FHaze.9 mph60%29.45 "Hg3 mi
6:00 PM99 °FHaze.12 mph57%29.45 "Hg3 mi
5:30 PM100 °FScattered clouds.12 mph53%29.45 "Hg3 mi
5:00 PM100 °FScattered clouds.12 mph53%29.45 "Hg3 mi
4:30 PM100 °FScattered clouds.9 mph57%29.47 "Hg3 mi
4:00 PM100 °FScattered clouds.12 mph57%29.47 "Hg3 mi
3:30 PM100 °FScattered clouds.12 mph57%29.50 "Hg3 mi
3:00 PM100 °FScattered clouds.9 mph57%29.50 "Hg3 mi
2:30 PM100 °FScattered clouds.9 mph60%29.50 "Hg3 mi
2:00 PM99 °FScattered clouds.9 mph64%29.53 "Hg3 mi
1:30 PM99 °FBroken clouds.7 mph64%29.56 "Hg3 mi
1:00 PM97 °FBroken clouds.7 mph63%29.59 "Hg3 mi
12:30 PM97 °FBroken clouds.9 mph67%29.59 "Hg3 mi
12:00 PM97 °FBroken clouds.9 mph67%29.59 "Hg3 mi
11:30 AM97 °FScattered clouds.9 mph63%29.59 "Hg3 mi
11:00 AM97 °FScattered clouds.7 mph63%29.59 "Hg3 mi
10:30 AM95 °FScattered clouds.9 mph71%29.59 "Hg2 mi
9:00 AM93 °FBroken clouds.5 mph71%29.59 "Hg2 mi
8:30 AM90 °FScattered clouds.6 mph84%29.59 "Hg2 mi
8:00 AM90 °FScattered clouds.7 mph84%29.59 "Hg2 mi
7:30 AM88 °FScattered clouds.5 mph84%29.56 "Hg2 mi
7:00 AM88 °FScattered clouds.5 mph84%29.56 "Hg2 mi
6:30 AM86 °FBroken clouds.6 mph89%29.56 "Hg2 mi
5:30 AM86 °FPassing clouds.6 mph89%29.53 "Hg2 mi
5:00 AM86 °FPassing clouds.7 mph89%29.53 "Hg2 mi
3:00 AM88 °FPassing clouds.7 mph84%29.53 "Hg2 mi
2:00 AM88 °FPartly cloudy.5 mph84%29.50 "Hg2 mi
Weather by CustomWeather, © 2016

See weather overviewHow to use our weather pages